Location: Corsier
(46.2637°N, 6.2238°E)
Time: 07:44:56
(UTC+00:00)

Cosmos 1697 Rocket - Pass Details

Date: 07 June 2020
Orbit: 832 x 843 km, 71.0° (Epoch: 07 July)

Event Time Altitude Azimuth Distance (km) Brightness Sun altitude
Exits shadow 01:36:14 - 260° (W) 2,570 4.9 -15.6°
Reaches altitude 10° 01:36:36 10° 262° (W) 2,464 4.8 -15.6°
Maximum altitude 01:41:00 23° 314° (NW) 1,735 4.5 -15.2°
Drops below altitude 10° 01:45:26 10° 5° (N) 2,473 6.2 -14.8°
Sets 01:48:26 0° 20° (NNE) 3,411 7.6 -14.5°
